GW4909 Weather Reports


time (UTC)temp
C
wind
direction
speed
KPH
gust
KPH
rain 1hr
cm
rain 24hr
cm
rain mn
cm
humidity
%
barometer
mb
20260504150941 20 243 1.6 1.6 0.00 0.00 0.00 53 1017.9
20260504150437 20 275 0.0 1.6 0.00 0.00 0.00 54 1017.7
20260504140904 17 302 3.2 3.2 0.00 0.00 0.00 61 1018.6
20260504140400 17 31 1.6 1.6 0.00 0.00 0.00 60 1018.7
20260504130324 13 143 0.0 0.0 0.00 0.00 0.00 75 1018.7
20260504120248 7 256 0.0 0.0 0.00 0.00 0.00 98 1018.4
20260504110715 6 257 0.0 0.0 0.00 0.00 0.00 98 1018.0
20260504110212 6 257 0.0 0.0 0.00 0.00 0.00 98 1018.1
20260504100130 6 237 0.0 0.0 0.00 0.00 0.00 98 1017.7
20260504081523 6 244 0.0 0.0 0.00 0.00 0.00 97 1017.7
20260504081019 6 247 0.0 0.0 0.00 0.00 0.00 97 1017.6
20260504080515 6 254 0.0 0.0 0.00 0.00 0.00 97 1017.5
20260504050328 8 248 0.0 0.0 0.00 0.00 0.00 90 1018.2
20260504045825 8 242 0.0 0.0 0.00 0.00 0.00 90 1018.2
20260504045320 8 235 0.0 0.0 0.00 0.00 0.00 90 1018.4
20260504044817 8 250 0.0 0.0 0.00 0.00 0.00 90 1018.3
20260504044315 8 240 0.0 0.0 0.00 0.00 0.00 90 1018.4
20260504043812 8 240 0.0 0.0 0.00 0.00 0.00 90 1018.3
20260504043308 8 232 0.0 0.0 0.00 0.00 0.00 90 1018.4
20260504042806 8 212 0.0 0.0 0.00 0.00 0.00 89 1018.6
20260504042304 8 245 0.0 0.0 0.00 0.00 0.00 89 1018.5
20260504041759 8 258 0.0 0.0 0.00 0.00 0.00 88 1018.6
20260504041255 8 258 0.0 0.0 0.00 0.00 0.00 88 1018.7
20260504040751 8 237 0.0 0.0 0.00 0.00 0.00 87 1018.7
20260504040249 9 201 0.0 1.6 0.00 0.00 0.00 87 1018.7
20260504035744 9 221 0.0 0.0 0.00 0.00 0.00 88 1018.8
20260504035242 9 225 0.0 0.0 0.00 0.00 0.00 87 1018.8
20260504034739 9 253 0.0 0.0 0.00 0.00 0.00 87 1018.8
20260504034236 9 253 0.0 0.0 0.00 0.00 0.00 86 1018.8
20260504033734 9 251 0.0 0.0 0.00 0.00 0.00 86 1018.9
20260504033231 9 234 0.0 0.0 0.00 0.00 0.00 85 1018.7
20260504032728 9 218 0.0 0.0 0.00 0.00 0.00 85 1018.7
20260504032225 10 242 0.0 0.0 0.00 0.00 0.00 87 1018.8
20260504031722 10 240 0.0 0.0 0.00 0.00 0.00 87 1018.9
20260504031219 10 247 0.0 0.0 0.00 0.00 0.00 87 1018.8
20260504030715 10 245 0.0 0.0 0.00 0.00 0.00 87 1018.8
20260504030213 10 243 0.0 0.0 0.00 0.00 0.00 87 1018.6
20260504025709 10 238 0.0 0.0 0.00 0.00 0.00 86 1018.8
20260504025205 10 245 0.0 0.0 0.00 0.00 0.00 86 1018.7
20260504024703 10 243 0.0 0.0 0.00 0.00 0.00 85 1018.6
20260504024159 10 239 0.0 0.0 0.00 0.00 0.00 82 1018.5
20260504023656 10 236 0.0 0.0 0.00 0.00 0.00 84 1018.7
20260504023152 10 240 0.0 0.0 0.00 0.00 0.00 83 1018.6
20260504022648 10 240 0.0 0.0 0.00 0.00 0.00 83 1018.4
20260504022144 10 247 0.0 0.0 0.00 0.00 0.00 84 1018.6
20260504021642 10 251 0.0 0.0 0.00 0.00 0.00 83 1018.4
20260504021139 10 242 0.0 0.0 0.00 0.00 0.00 82 1018.4
20260504020636 11 238 0.0 0.0 0.00 0.00 0.00 82 1018.4
20260504020132 11 249 0.0 0.0 0.00 0.00 0.00 82 1018.5
20260504015629 11 254 0.0 0.0 0.00 0.00 0.00 81 1018.3
20260504015125 11 254 0.0 0.0 0.00 0.00 0.00 82 1018.2
20260504014621 11 252 0.0 0.0 0.00 0.00 0.00 81 1018.3
20260504014118 11 246 0.0 0.0 0.00 0.00 0.00 80 1018.3
20260504013616 11 245 0.0 0.0 0.00 0.00 0.00 79 1018.2
20260504013112 11 252 0.0 0.0 0.00 0.00 0.00 79 1018.1
20260504012610 12 248 0.0 0.0 0.00 0.00 0.00 78 1018.1
20260504012108 12 260 0.0 0.0 0.00 0.00 0.00 75 1018.0
20260504011604 12 244 0.0 0.0 0.00 0.00 0.00 76 1018.0
20260504011100 12 252 0.0 0.0 0.00 0.00 0.00 76 1017.9
20260504010556 12 252 0.0 0.0 0.00 0.00 0.00 76 1017.9
20260504010052 12 248 0.0 0.0 0.00 0.00 0.00 75 1018.0
20260504005549 13 236 0.0 0.0 0.00 0.00 0.00 73 1018.0
20260504005046 13 257 0.0 0.0 0.00 0.00 0.00 72 1017.9
20260504004544 13 259 0.0 0.0 0.00 0.00 0.00 70 1017.9
20260504004041 13 259 0.0 0.0 0.00 0.00 0.00 72 1017.9
20260504003537 14 242 0.0 0.0 0.00 0.00 0.00 69 1017.7
20260504003034 15 260 0.0 0.0 0.00 0.00 0.00 67 1017.7
20260504002531 15 253 0.0 0.0 0.00 0.00 0.00 66 1017.9
20260504002029 15 258 0.0 0.0 0.00 0.00 0.00 61 1017.7
20260504001526 16 254 0.0 0.0 0.00 0.00 0.00 58 1017.9
20260504001022 16 258 0.0 0.0 0.00 0.00 0.00 61 1017.6
20260504000519 16 244 0.0 1.6 0.00 0.00 0.00 64 1017.7
20260504000017 17 255 0.0 0.0 0.00 0.00 0.00 58 1017.7
20260503235515 17 264 0.0 0.0 0.00 0.00 0.00 58 1017.7
20260503235011 17 258 0.0 0.0 0.00 0.00 0.00 56 1017.5
20260503234509 18 228 0.0 0.0 0.00 0.00 0.00 56 1017.8
20260503234008 20 244 0.0 0.0 0.00 0.00 0.00 57 1017.8
20260503233503 20 266 1.6 1.6 0.00 0.00 0.00 45 1017.5
20260503232959 20 306 0.0 0.0 0.00 0.00 0.00 46 1017.6
20260503232456 20 255 0.0 0.0 0.00 0.00 0.00 50 1017.6
20260503231954 20 241 0.0 0.0 0.00 0.00 0.00 41 1017.6
20260503231451 20 263 1.6 1.6 0.00 0.00 0.00 45 1017.6
20260503230948 22 244 1.6 1.6 0.00 0.00 0.00 43 1017.8
20260503230444 22 247 0.0 1.6 0.00 0.00 0.00 44 1017.7
20260503225942 21 302 0.0 0.0 0.00 0.00 0.00 36 1017.8
20260503225439 21 229 0.0 1.6 0.00 0.00 0.00 38 1017.7
20260503224934 21 35 0.0 1.6 0.00 0.00 0.00 39 1017.8
20260503224432 21 323 1.6 3.2 0.00 0.00 0.00 38 1017.9
20260503223929 22 352 4.8 4.8 0.00 0.00 0.00 36 1017.9
20260503223427 21 269 0.0 1.6 0.00 0.00 0.00 37 1018.0
20260503222922 21 273 4.8 6.4 0.00 0.00 0.00 36 1017.9
20260503222421 21 236 4.8 4.8 0.00 0.00 0.00 36 1018.0
20260503221919 21 335 3.2 3.2 0.00 0.00 0.00 33 1017.9
20260503221417 20 165 4.8 6.4 0.00 0.00 0.00 35 1018.2
20260503220913 20 4 3.2 4.8 0.00 0.00 0.00 34 1018.0
20260503220410 21 306 3.2 4.8 0.00 0.00 0.00 35 1018.2
20260503215907 20 273 0.0 0.0 0.00 0.00 0.00 38 1018.2
20260503215404 21 118 0.0 1.6 0.00 0.00 0.00 34 1018.0
20260503214902 21 232 6.4 6.4 0.00 0.00 0.00 35 1018.1
20260503214359 21 47 4.8 6.4 0.00 0.00 0.00 33 1018.2
20260503213856 20 292 0.0 1.6 0.00 0.00 0.00 38 1018.2
20260503213354 20 37 6.4 11.3 0.00 0.00 0.00 34 1018.3
20260503212850 21 2 8.0 9.7 0.00 0.00 0.00 36 1018.2
20260503212348 21 245 3.2 3.2 0.00 0.00 0.00 40 1018.2
20260503211845 21 4 4.8 4.8 0.00 0.00 0.00 41 1018.2
20260503211342 21 299 3.2 3.2 0.00 0.00 0.00 37 1018.3
20260503210837 21 351 6.4 9.7 0.00 0.00 0.00 37 1018.4
20260503210335 21 288 1.6 1.6 0.00 0.00 0.00 38 1018.4
20260503205829 21 293 1.6 1.6 0.00 0.00 0.00 36 1018.4
20260503205326 21 49 1.6 3.2 0.00 0.00 0.00 39 1018.4
20260503204823 21 51 3.2 6.4 0.00 0.00 0.00 36 1018.7
20260503204320 21 349 4.8 6.4 0.00 0.00 0.00 36 1018.7
20260503203817 21 268 1.6 1.6 0.00 0.00 0.00 38 1018.6
20260503203315 21 311 0.0 1.6 0.00 0.00 0.00 38 1018.7
20260503202811 21 285 1.6 3.2 0.00 0.00 0.00 42 1018.8
20260503202310 21 275 4.8 6.4 0.00 0.00 0.00 41 1018.9
20260503201808 21 351 8.0 9.7 0.00 0.00 0.00 40 1019.0
20260503201304 21 261 4.8 6.4 0.00 0.00 0.00 39 1019.1
20260503200802 21 263 1.6 1.6 0.00 0.00 0.00 41 1019.2
20260503200257 21 298 4.8 6.4 0.00 0.00 0.00 38 1019.3
20260503195755 21 344 0.0 1.6 0.00 0.00 0.00 45 1019.5
20260503195251 21 157 4.8 4.8 0.00 0.00 0.00 39 1019.5
20260503194749 21 270 6.4 6.4 0.00 0.00 0.00 41 1019.6
20260503194245 21 234 3.2 3.2 0.00 0.00 0.00 42 1019.5
20260503193741 21 293 1.6 1.6 0.00 0.00 0.00 38 1019.8
20260503193237 22 354 1.6 3.2 0.00 0.00 0.00 35 1019.8
20260503192733 21 314 1.6 3.2 0.00 0.00 0.00 42 1019.7
20260503192228 21 98 3.2 4.8 0.00 0.00 0.00 37 1020.1
20260503191725 20 340 1.6 1.6 0.00 0.00 0.00 37 1020.0
20260503191222 20 69 4.8 4.8 0.00 0.00 0.00 37 1020.2
20260503190719 20 291 4.8 6.4 0.00 0.00 0.00 39 1020.3
20260503190216 21 7 1.6 3.2 0.00 0.00 0.00 41 1020.1
20260503185713 20 142 4.8 4.8 0.00 0.00 0.00 37 1020.4
20260503185208 20 275 3.2 4.8 0.00 0.00 0.00 44 1020.4
20260503184703 20 257 8.0 11.3 0.00 0.00 0.00 40 1020.6
20260503184200 20 328 6.4 6.4 0.00 0.00 0.00 42 1020.6
20260503183656 19 255 1.6 1.6 0.00 0.00 0.00 42 1020.5
20260503183154 20 249 3.2 3.2 0.00 0.00 0.00 52 1020.6
20260503182652 19 3 3.2 4.8 0.00 0.00 0.00 43 1020.8
20260503182150 20 126 1.6 1.6 0.00 0.00 0.00 42 1020.7
20260503181646 20 290 0.0 1.6 0.00 0.00 0.00 44 1020.9
20260503181143 18 175 3.2 3.2 0.00 0.00 0.00 44 1020.9
20260503180640 18 285 3.2 4.8 0.00 0.00 0.00 44 1021.0
20260503180138 19 172 3.2 4.8 0.00 0.00 0.00 43 1021.1
20260503175635 20 306 1.6 1.6 0.00 0.00 0.00 48 1020.9
20260503175132 19 28 3.2 3.2 0.00 0.00 0.00 44 1021.0
20260503174628 19 2 4.8 4.8 0.00 0.00 0.00 45 1021.2
20260503174126 18 248 1.6 1.6 0.00 0.00 0.00 49 1021.2
20260503173620 18 32 4.8 4.8 0.00 0.00 0.00 45 1021.2
20260503173117 18 342 4.8 6.4 0.00 0.00 0.00 49 1021.3
20260503172614 18 353 4.8 4.8 0.00 0.00 0.00 46 1021.4
20260503172112 18 281 3.2 3.2 0.00 0.00 0.00 51 1021.3
20260503171608 18 253 8.0 9.7 0.00 0.00 0.00 44 1021.5
20260503171105 17 351 3.2 3.2 0.00 0.00 0.00 47 1021.6
20260503170602 17 253 8.0 9.7 0.00 0.00 0.00 45 1021.5